User: anonymous   Login
Location: Unspecified
(0.0000°N, 0.0000°E)
Time: 00:01:29
(UTC+00:00)
Language:

APRIZESAT 3 - Orbit

View from above orbital plane
View from above orbital plane
View from above satellite
View from above satellite

Ground track
Ground track

The orbit data is extracted from the following two-line orbital elements,

1 35686U 09041F   17082.96864090 +.00000189 +00000-0 +27186-4 0  9998
2 35686 098.2740 078.9393 0072023 290.9013 068.4502 14.87037670414475
Epoch (UTC): 23 March 2017 23:14:50
Eccentricity: 0.0072023
inclination: 98.2740°
perigee height: 557 km
apogee height: 657 km
right ascension of ascending node: 78.9393°
argument of perigee: 290.9013°
revolutions per day: 14.87037670
mean anomaly at epoch: 68.4502°
orbit number at epoch: 41447

The dashed part of the orbit path shows where the satellite is in the earth's shadow,  

DLR